STARLINK-1413, 45689

Orbit data source: Space-Track

STARLINK-1413, 45689 is a payload satellite owned by SpaceX/Seattle (US) in LEO that was launched on Thu, 04 Jun 2020 UTC via an FALCON 9 launch vehicle from the Air Force Eastern Test Range (AFETR). Payloads include a variety of satellites, spacecraft, and rockets equipped with specific instruments for various scientific and technological missions. These include communications satellites like Starlink; space stations such as the ISS; scientific satellites like the Hubble; Earth observation satellites from companies like Planet Labs, Umbra, and HawkEye 360; GPS; miniature CubeSats for education and research; and military/defense satellites.

Loading next visibility...
STARLINK-1413 details
Identifier
45689, 2020-035AJ
Orbit
LEO
Last TLE update1 day ago
Origin
Flag of USSpaceX/Seattle (US)
ManufacturerSpaceX/Seattle
MissionOperational Commercial Communications
Bus & MotorSTARLINK, Unknown motor
Mass260 kg wet, ~248 kg dry
Launch date (UTC)
2020-06-04 (5 years ago)
Launch vehicle
FALCON 9
Launch site
Air Force Eastern Test Range (AFETR)
Object type
Payload
Rocket body
Debris
Shape & HBRBox + 1 Pan, 8.86 m
Radar Cross Section13.562 m², Large (>1 m²)

Expand to show TLE details & history

TLE from 1 day ago
0 STARLINK-1413
1 45689U 20035AJ  24360.33822561 -.00000295  00000-0 -88901-6 0  9997
2 45689  53.0549 228.9461 0001529 102.8430 257.2730 15.06397017252562
Epoch: 2024-12-25T08:07Z
Definitive object data (Epoch: 2024-12-25T08:07:02.692Z)
Latitude-0.00002°
Longitude12.85146°
Altitude548.333 km
Speed7.589 km/s
True Right ascension15h 15m 47s
True Declination0° 00' 00"
Sunlit
Object was in daylight at TLE epoch
Visualization TLE readout
Latitude-16.63485°
Longitude-159.16873°
Altitude551.797 km
Speed7.586 km/s
Apparent Right ascension01h 22m 54s
Apparent Declination-36° 04' 35"
Sunlit
Object is in full shadow
Visualization observer readout
Local Sidereal Time09:50:06
Azimuth257.711° W
Elevation-48.521°
Doppler factor1
Orbital elements
Apogee altitude548.55 km
Perigee altitude546.432 km
Semi-major axis6,925.628 km
Eccentricity0.0001529
Inclination53.0549°
RAAN228.9461°
Arg. of periapsis102.843°
True anomaly257.25591°
Mean anomaly257.273°
Eccentric anomaly257.26446°
Mean motion3.76578 °/min
BSTAR-8.8901e-7
Orbital period95.6 mins
Loading maneuver chart data...

STARLINK-1413 Visibility forecast

Observer location: undefined°, undefined

Span
Click to sort rows by Start time (UTC) header in descending order
Start Az.
Max El. time (UTC)
Max El. Az.
Max El.
End time (UTC)
End Az.
7 mins2024-12-26 17:42:55.380Z218.2° SW2024-12-26 17:46:55.380Z130.719° SE42.202°2024-12-26 17:49:55.380Z57.798° ENE
5 mins2024-12-26 19:24:55.380Z297.676° NW2024-12-26 19:26:55.380Z341.229° N22.762°2024-12-26 19:29:55.380Z30.319° NE
4 mins2024-12-26 22:46:55.380Z354.037° N2024-12-26 22:47:55.380Z12.018° NNE17.15°2024-12-26 22:50:55.380Z60.771° ENE
6 mins2024-12-27 00:25:55.380Z320.008° NNW2024-12-27 00:27:55.380Z358.411° N40.547°2024-12-27 00:31:55.380Z118.675° SE
4 mins2024-12-27 02:05:55.380Z260.72° W2024-12-27 02:07:55.380Z225.53° WSW16.342°2024-12-27 02:09:55.380Z194.735° SSW
|